584  
SXUS52 KCHS 142027  
OSOCHS  
 
MARINE OBSERVATIONS  
NATIONAL WEATHER SERVICE CHARLESTON SC  
300 PM EST THU DEC 14 2017  
   
..DOWNTOWN CHARLESTON AND HARBOR
 
 
 
CITY SKY/WX TMP DP RH WIND PRES REMARKS  
WATERFRONT PRK N/A 60 37 42 SW7 29.75F  
   
..LAKE MOULTRIE
 
 
 
CITY SKY/WX TMP DP RH WIND PRES REMARKS  
PINOPOLIS N/A 55 41 58 SW6 29.80S  
   
..LAKE AND SUPPLEMENTAL COASTAL OBSERVATIONS
 
 
 
STATION/POSITION TIME TEMP WIND PRES WAVE SWELL  
AIR SEA DIR/SP/G HT/PER HT/PER/DIR  
(UTC) (F) (DEG/KT/KT) (MB) (FT/S) (FT/S/D)  
FORT PULASKI 1948 62 54 240/ 9/ 14 1013.7R  
SAPELO ISLAND 1900 62 250/ 6 1014.0  
WINYAH BAY NOT AVBL  
LAKE MURRAY 1920 58 260/ 9/ 13 1010.5  
ACE BASIN NERRS 1845 59 220/ 2 1013.0  
 
   
..C-MAN AND BUOY OBSERVATIONS
 
 
 
STATION/POSITION TIME TEMP WIND PRES WAVE SWELL  
AIR SEA DIR/SP/G HT/PER HT/PER/DIR  
(UTC) (F) (DEG/KT/KT) (MB) (FT/S) (FT/S/D)  
BUOY 41004 1950 73 220/ 19/ 23 1012.4F 5/ 7  
BUOY 41008 1950 58 59 210/ 10/ 12 1014.1F 2/ 4  
FOLLY BEACH CMAN 1900 54 220/ 11/ 14 1013.1F  
CAPERS NS BUOY 1908 51 54 230/ 14/ 19 1011.9F  
FRIPP NS BUOY 1908 53 54 210/ 14/ 19 1013.0F  
5E ST. MARYS GA 1930 62 N/A 1/11  
 
 
STATION/POSITION TIME TEMP WIND PRES WAVE SWELL  
AIR SEA DIR/SP/G HT/PER HT/PER/DIR  
(UTC) (F) (DEG/KT/KT) (MB) (FT/S) (FT/S/D)  
FRYING PAN BUOY 1950 57 67 270/ 12/ 16 1011.6F 6/ 8 5/200/ 8  
BUOY 41025 1950 56 74 290/ 16/ 19 1011.5R 8/ 9 7/210/ 9  
CAPE LOOKOUT NC 1900 260/ 11/ 13 1011.2F  
BUOY 41002 1850 68 74 250/ 21/ 27 1013.0 9/ 8 3/230/16  
BUOY 41010 NOT AVBL  
ST AUGUSTINE FL 2000 68 63 230/ 6/ 10 1015.5F  
 

 
 
 
CLICK HERE TO GO TO PREVIOUS BULLETINS.

The Nexlab SC Page
The Nexlab GA Page Main Text Page